Location: Batang Balui
(2.7000°N, 113.7833°E)
Time: 08:20:34
(UTC+00:00)

Envisat - Pass Details

Date: 09 December 2022
Orbit: 763 x 765 km, 98.2° (Epoch: 07 February)

Event Time Altitude Azimuth Distance (km) Brightness Sun altitude
Exits shadow 19:17:35 15° 105° (ESE) 1,976 5.7 -41.9°
Drops below altitude 10° 19:20:08 10° 136° (SE) 2,297 6.1 -41.4°
Sets 19:23:26 0° 158° (SSE) 3,224 6.8 -40.7°
